Regional Weather Roundup
Issued by NWS Memphis, TN

Home | Current Version | Previous Version | Text Only | Print | Product List | Glossary On
Versions: 1 2 3 4 5 6 7 8 9 10 11 12 13 14 15 16 17 18 19 20 21 22 23 24 25 26 27 28 29 30 31 32 33 34 35 36 37 38 39 40 41 42 43 44 45 46 47 48 49 50
000
ASUS44 KMEG 301610
RWRMEG
MEMPHIS CWA HOURLY WEATHER ROUNDUP
NATIONAL WEATHER SERVICE MEMPHIS TN
1100 AM CDT THU JUL 30 2015

...WEST TENNESSEE...

CITY           SKY/WX    TMP DP  RH WIND       PRES   REMARKS
MEMPHIS INTL   SUNNY     87  67  51 N13       30.11R HX  90
NWS MEMPHIS      N/A     84 N/A N/A MISG        N/A
JACKSON        SUNNY     86  62  44 NE10      30.12S
DYERSBURG        N/A    N/A N/A N/A MISG        N/A
PARIS          SUNNY     81  61  50 NE13      30.15R


...EASTERN ARKANSAS...

CITY           SKY/WX    TMP DP  RH WIND       PRES   REMARKS
JONESBORO      SUNNY     81  66  60 NE12      30.14S
WEST MEMPHIS   SUNNY     85  64  49 E14       30.11R
BATESVILLE     SUNNY     84  63  48 NE7       30.17R
NEWPORT        SUNNY     83  67  58 NE9       30.17R
WALNUT RIDGE   SUNNY     82  61  47 NE14      30.16R
BLYTHEVILLE    SUNNY     83  66  56 NE13      30.14R
SEARCY         SUNNY     86  66  51 E13       30.16R
STUTTGART      SUNNY     86  70  58 NE13      30.12R HX  90
PINE BLUFF     SUNNY     88  74  63 NE10      30.11R HX  96
MONTICELLO     SUNNY     91  79  67 VRB7      30.08R HX 107


...NORTH MISSISSIPPI...

CITY           SKY/WX    TMP DP  RH WIND       PRES   REMARKS
TUPELO         SUNNY     87  73  62 NE12      30.07S HX  94
OLIVE BRANCH   MOSUNNY   84  64  51 NE14      30.11R
TUNICA         SUNNY     86  72  62 N7        30.10S HX  92
CLARKSDALE     MOSUNNY   90  79  70 N9        30.09S HX 105
CORINTH        SUNNY     84  66  54 NE10      30.10R
GREENWOOD      SUNNY     92  77  61 NE9       30.06R HX 105
COLUMBUS       SUNNY     89  78  68 N12       30.04R HX 103
STARKVILLE     FAIR      88  77  70 N8        30.05S HX 100
GOLDEN TRIANGL MOSUNNY   91  77  62 NE12      30.04R HX 105


...SOUTHEAST MISSOURI...

CITY           SKY/WX    TMP DP  RH WIND       PRES   REMARKS
WEST PLAINS    SUNNY     81  59  47 E7        30.23R
POPLAR BLUFF   SUNNY     83  64  52 NE10      30.16R
CAPE GIRARDEAU SUNNY     82  63  51 NE8       30.15


...NORTHWEST ALABAMA...

CITY           SKY/WX    TMP DP  RH WIND       PRES   REMARKS
MUSCLE SHOALS  PTSUNNY   85  73  67 N8        30.09R HX  91


...MIDDLE TENNESSEE...

CITY           SKY/WX    TMP DP  RH WIND       PRES   REMARKS
NASHVILLE      MOSUNNY   85  62  46 N13       30.11S
CLARKSVILLE    SUNNY     82  62  50 N10       30.13R
COLUMBIA       SUNNY     84  66  54 NE8       30.09S


...WESTERN KENTUCKY...

CITY           SKY/WX    TMP DP  RH WIND       PRES   REMARKS
PADUCAH        SUNNY     83  64  52 NE10      30.14R
FORT CAMPBELL  SUNNY     81  63  54 N12       30.12S


...CENTRAL ARKANSAS...

CITY           SKY/WX    TMP DP  RH WIND       PRES   REMARKS
LITTLE ROCK    SUNNY     88  69  53 NE13G20   30.13R HX  92


SKY/WX REPORTED AS FAIR MEANS FEW OR NO CLOUDS BELOW
12 THOUSAND FEET.



USA.gov is the U.S. government's official web portal to all federal, state and local government web resources and services.